Location: Treviso
(45.6669°N, 12.2430°E)
Time: 07:49:58
(UTC+01:00)

Tiangong - Visible Passes

Search period start: 28 January 2022 00:00
Search period end: 07 February 2022 00:00
Orbit: 381 x 387 km, 41.5° (Epoch: 27 January)

Date Brightness Start Highest point End Pass type
(mag) Time Alt. Az. Time Alt. Az. Time Alt. Az.
28 Jan 3.3 18:25:02 10° SSW 18:26:59 15° SSE 18:28:04 13° SE visible
29 Jan 2.5 19:00:51 10° SW 19:03:25 28° S 19:03:25 28° S visible
30 Jan 2.9 18:01:26 10° SSW 18:03:56 21° SSE 18:06:27 10° ESE visible
30 Jan 3.5 19:37:23 10° WSW 19:38:42 21° SW 19:38:42 21° SW visible
31 Jan 2.2 18:37:40 10° WSW 18:40:36 34° S 18:41:44 25° SE visible
01 Feb 2.3 19:14:19 10° WSW 19:16:57 36° SSW 19:16:57 36° SSW visible
02 Feb 2.1 18:14:30 10° WSW 18:17:28 38° S 18:19:57 13° ESE visible
02 Feb 4.0 19:51:11 10° WSW 19:52:09 17° WSW 19:52:09 17° WSW visible
03 Feb 2.3 18:51:12 10° WSW 18:54:08 34° S 18:55:10 26° SSE visible
04 Feb 2.3 17:51:17 10° WSW 17:54:15 37° S 17:57:14 10° ESE visible
04 Feb 3.2 19:28:11 10° WSW 19:30:26 21° SSW 19:30:26 21° SSW visible
05 Feb 2.8 18:28:03 10° WSW 18:30:49 27° SSW 18:33:32 10° SE visible
06 Feb 3.8 19:05:19 10° WSW 19:07:12 15° SSW 19:08:56 11° S visible
